GW1288 Weather Reports


Display with metric or nautical units.
time (UTC)temp
F
wind
direction
speed
MPH
gust
MPH
rain 1hr
in
rain 24hr
in
rain mn
in
humidity
%
barometer
mb
20220813124815 74 176 1.0 1.0 0.00 0.00 0.00 92 1017.9
20220813124315 73 173 0.0 0.0 0.00 0.00 0.00 92 1018.2
20220813123814 73 169 0.0 0.0 0.00 0.00 0.00 92 1018.3
20220813123314 73 237 1.0 1.0 0.00 0.00 0.00 92 1017.9
20220813122813 73 222 1.0 1.0 0.00 0.00 0.00 92 1018.0
20220813122313 73 224 1.0 2.0 0.00 0.00 0.00 92 1018.2
20220813121812 73 197 2.0 2.0 0.00 0.00 0.00 92 1018.0
20220813121311 74 162 1.0 1.0 0.00 0.00 0.00 92 1018.0
20220813120810 74 160 0.0 0.0 0.00 0.00 0.00 92 1018.2
20220813120310 74 164 0.0 0.0 0.00 0.00 0.00 92 1017.9
20220813115810 74 207 1.0 2.0 0.00 0.00 0.00 92 1017.9
20220813115310 74 160 0.0 0.0 0.00 0.00 0.00 92 1017.8
20220813114808 74 161 0.0 0.0 0.00 0.00 0.00 91 1017.9
20220813114307 74 181 0.0 0.0 0.00 0.00 0.00 91 1018.0
20220813113807 74 168 0.0 0.0 0.00 0.00 0.00 91 1017.5
20220813113306 74 149 0.0 0.0 0.00 0.00 0.00 91 1017.6
20220813112804 74 170 0.0 0.0 0.00 0.00 0.00 91 1017.6
20220813112305 74 170 0.0 1.0 0.00 0.00 0.00 91 1017.5
20220813111803 75 202 2.0 2.0 0.00 0.00 0.00 90 1017.4
20220813111303 75 164 0.0 0.0 0.00 0.00 0.00 90 1017.4
20220813110802 75 188 0.0 0.0 0.00 0.00 0.00 90 1017.4
20220813110302 74 164 0.0 0.0 0.00 0.00 0.00 90 1017.5
20220813105802 75 166 0.0 0.0 0.00 0.00 0.00 90 1017.5
20220813105304 75 178 0.0 0.0 0.00 0.00 0.00 90 1017.4
20220813104802 75 162 0.0 0.0 0.00 0.00 0.00 90 1017.5
20220813104300 75 164 0.0 0.0 0.00 0.00 0.00 90 1017.5
20220813103759 75 224 0.0 1.0 0.00 0.00 0.00 90 1017.4
20220813103258 75 154 0.0 0.0 0.00 0.00 0.00 90 1017.4
20220813102756 75 150 0.0 0.0 0.00 0.00 0.00 89 1017.5
20220813102255 75 165 0.0 1.0 0.00 0.00 0.00 89 1017.4
20220813101754 76 169 0.0 0.0 0.00 0.00 0.00 89 1017.5
20220813101253 76 164 0.0 0.0 0.00 0.00 0.00 88 1017.7
20220813100753 76 168 0.0 0.0 0.00 0.00 0.00 88 1017.5
20220813100251 76 198 1.0 1.0 0.00 0.00 0.00 88 1017.6
20220813095751 76 169 0.0 0.0 0.00 0.00 0.00 88 1017.6
20220813095250 76 158 0.0 0.0 0.00 0.00 0.00 88 1017.2
20220813094750 76 168 0.0 0.0 0.00 0.00 0.00 87 1017.3
20220813094248 76 166 0.0 0.0 0.00 0.00 0.00 87 1017.4
20220813093748 77 169 0.0 0.0 0.00 0.00 0.00 87 1017.5
20220813093248 77 183 0.0 0.0 0.00 0.00 0.00 87 1017.4
20220813092748 77 182 0.0 0.0 0.00 0.00 0.00 87 1017.6
20220813092248 77 192 0.0 0.0 0.00 0.00 0.00 87 1017.6
20220813091747 77 165 1.0 1.0 0.00 0.00 0.00 86 1017.6
20220813091246 77 161 0.0 0.0 0.00 0.00 0.00 86 1017.5
20220813090745 77 179 0.0 0.0 0.00 0.00 0.00 86 1017.5
20220813090244 77 207 1.0 1.0 0.00 0.00 0.00 85 1017.6
20220813085744 78 179 0.0 1.0 0.00 0.00 0.00 85 1017.5
20220813085243 78 168 0.0 0.0 0.00 0.00 0.00 84 1017.3
20220813084743 79 123 0.0 0.0 0.00 0.00 0.00 84 1017.3
20220813084242 79 122 0.0 0.0 0.00 0.00 0.00 84 1017.5
20220813083741 79 124 1.0 1.0 0.00 0.00 0.00 84 1017.3
20220813083242 79 140 0.0 0.0 0.00 0.00 0.00 84 1017.3
20220813082740 79 131 0.0 1.0 0.00 0.00 0.00 84 1017.5
20220813082239 78 108 1.0 1.0 0.00 0.00 0.00 84 1017.4
20220813081737 79 135 0.0 0.0 0.00 0.00 0.00 83 1017.6
20220813081236 79 135 0.0 1.0 0.00 0.00 0.00 83 1017.4
20220813080736 79 118 1.0 2.0 0.00 0.00 0.00 83 1017.4
20220813080235 79 128 1.0 1.0 0.00 0.00 0.00 82 1017.3
20220813075735 79 75 1.0 1.0 0.00 0.00 0.00 82 1017.4
20220813075234 80 49 2.0 2.0 0.00 0.00 0.00 82 1017.3
20220813074734 80 101 2.0 2.0 0.00 0.00 0.00 81 1017.4
20220813074233 80 91 1.0 1.0 0.00 0.00 0.00 81 1017.4
20220813073731 80 49 2.0 2.0 0.00 0.00 0.00 81 1017.2
20220813073230 80 50 1.0 2.0 0.00 0.00 0.00 81 1017.4
20220813072728 80 65 2.0 2.0 0.00 0.00 0.00 80 1017.4
20220813072228 80 78 1.0 2.0 0.00 0.00 0.00 80 1017.5
20220813071727 80 124 1.0 1.0 0.00 0.00 0.00 79 1017.4
20220813071226 80 122 1.0 1.0 0.00 0.00 0.00 79 1017.2
20220813070724 80 135 1.0 1.0 0.00 0.00 0.00 79 1017.3
20220813070223 80 84 1.0 1.0 0.00 0.00 0.00 79 1017.2
20220813065722 80 90 1.0 2.0 0.00 0.00 0.00 79 1017.3
20220813065222 80 66 1.0 2.0 0.00 0.00 0.00 79 1017.4
20220813064720 80 101 1.0 2.0 0.00 0.00 0.00 79 1017.4
20220813064219 80 121 1.0 1.0 0.00 0.00 0.00 78 1017.3
20220813063718 80 120 1.0 1.0 0.00 0.00 0.00 78 1017.5
20220813063217 80 50 2.0 2.0 0.00 0.00 0.00 78 1017.3
20220813062716 80 123 0.0 1.0 0.00 0.00 0.00 78 1017.5
20220813062215 80 111 1.0 1.0 0.00 0.00 0.00 78 1017.4
20220813061716 80 112 1.0 1.0 0.00 0.00 0.00 78 1017.3
20220813061214 80 95 1.0 1.0 0.00 0.00 0.00 78 1017.2
20220813060713 80 113 1.0 1.0 0.00 0.00 0.00 78 1017.3
20220813060212 80 118 1.0 1.0 0.00 0.00 0.00 78 1017.3
20220813055711 81 112 1.0 1.0 0.00 0.00 0.00 77 1017.3
20220813055211 81 106 1.0 1.0 0.00 0.00 0.00 77 1017.2
20220813054710 81 127 1.0 1.0 0.00 0.00 0.00 77 1017.1
20220813054210 81 133 1.0 2.0 0.00 0.00 0.00 76 1017.2
20220813053708 81 122 1.0 1.0 0.00 0.00 0.00 76 1017.1
20220813053207 81 137 1.0 1.0 0.00 0.00 0.00 76 1017.2
20220813052706 81 122 0.0 1.0 0.00 0.00 0.00 76 1017.1
20220813052205 81 130 0.0 0.0 0.00 0.00 0.00 75 1017.2
20220813051704 81 134 2.0 2.0 0.00 0.00 0.00 75 1017.1
20220813051203 81 86 2.0 2.0 0.00 0.00 0.00 75 1017.2
20220813050703 81 131 0.0 1.0 0.00 0.00 0.00 75 1017.2
20220813050202 82 107 0.0 1.0 0.00 0.00 0.00 74 1017.0
20220813045701 82 100 2.0 2.0 0.00 0.00 0.00 74 1017.2
20220813045200 82 106 2.0 3.0 0.00 0.00 0.00 74 1017.4
20220813044659 82 112 1.0 1.0 0.00 0.00 0.00 74 1017.0
20220813044158 82 48 2.0 3.0 0.00 0.00 0.00 73 1017.2
20220813043658 82 98 3.0 3.0 0.00 0.00 0.00 73 1017.3
20220813043155 82 110 1.0 2.0 0.00 0.00 0.00 73 1017.0
20220813042655 82 32 3.0 3.0 0.00 0.00 0.00 72 1017.3
20220813042154 83 73 5.0 6.0 0.00 0.00 0.00 72 1017.1
20220813041653 83 82 3.0 3.0 0.00 0.00 0.00 71 1017.3
20220813041150 83 114 2.0 3.0 0.00 0.00 0.00 71 1017.1
20220813040650 83 70 4.0 5.0 0.00 0.00 0.00 70 1017.3
20220813040149 83 64 1.0 1.0 0.00 0.00 0.00 70 1017.2
20220813035648 84 73 3.0 5.0 0.00 0.00 0.00 70 1017.2
20220813035147 84 78 4.0 6.0 0.00 0.00 0.00 69 1017.3
20220813034645 84 37 4.0 6.0 0.00 0.00 0.00 69 1017.2
20220813034143 84 57 5.0 7.0 0.00 0.00 0.00 68 1017.1
20220813033642 84 50 1.0 2.0 0.00 0.00 0.00 68 1017.1
20220813033141 84 42 5.0 6.0 0.00 0.00 0.00 67 1017.0
20220813032641 85 81 5.0 6.0 0.00 0.00 0.00 67 1017.0
20220813032141 85 70 7.0 8.0 0.00 0.00 0.00 67 1017.0
20220813031640 85 66 3.0 5.0 0.00 0.00 0.00 66 1017.2
20220813031139 85 59 4.0 6.0 0.00 0.00 0.00 66 1017.0
20220813030637 86 57 3.0 3.0 0.00 0.00 0.00 66 1017.0
20220813030135 86 347 7.0 9.0 0.00 0.00 0.00 65 1016.9
20220813025635 86 48 4.0 8.0 0.00 0.00 0.00 65 1016.7
20220813025133 86 75 2.0 3.0 0.00 0.00 0.00 65 1016.7
20220813024632 86 62 5.0 6.0 0.00 0.00 0.00 65 1016.4
20220813024132 86 112 3.0 3.0 0.00 0.00 0.00 65 1016.3
20220813023631 86 63 3.0 5.0 0.00 0.00 0.00 64 1016.4
20220813023131 86 96 4.0 6.0 0.00 0.00 0.00 65 1016.4
20220813022631 86 66 4.0 6.0 0.00 0.00 0.00 64 1016.2
20220813022130 86 79 2.0 2.0 0.00 0.00 0.00 64 1016.4
20220813021629 86 128 2.0 2.0 0.00 0.00 0.00 64 1016.1
20220813021129 86 145 2.0 3.0 0.00 0.00 0.00 63 1016.0
20220813020628 86 69 6.0 9.0 0.00 0.00 0.00 63 1016.1
20220813020127 87 25 3.0 5.0 0.00 0.00 0.00 63 1015.9
20220813015623 87 91 2.0 2.0 0.00 0.00 0.00 62 1015.9
20220813015122 87 39 7.0 9.0 0.00 0.00 0.00 61 1016.1
20220813014621 87 58 6.0 7.0 0.00 0.00 0.00 61 1015.8
20220813014120 87 77 3.0 5.0 0.00 0.00 0.00 60 1015.7
20220813013618 88 31 3.0 5.0 0.00 0.00 0.00 60 1015.6
20220813013117 88 72 5.0 7.0 0.00 0.00 0.00 58 1015.5
20220813012617 89 93 3.0 7.0 0.00 0.00 0.00 57 1015.5
20220813012115 89 122 5.0 7.0 0.00 0.00 0.00 56 1015.5
20220813011614 89 24 5.0 6.0 0.00 0.00 0.00 55 1015.6
20220813011113 90 130 1.0 1.0 0.00 0.00 0.00 54 1015.3
20220813010613 90 50 5.0 8.0 0.00 0.00 0.00 53 1015.3
20220813010111 90 21 5.0 10.0 0.00 0.00 0.00 53 1015.2
20220813005610 91 39 7.0 10.0 0.00 0.00 0.00 51 1015.0
20220813005110 91 66 4.0 5.0 0.00 0.00 0.00 48 1015.0
20220813004610 91 19 2.0 2.0 0.00 0.00 0.00 48 1014.6
20220813004108 91 106 4.0 5.0 0.00 0.00 0.00 48 1014.7
20220813003607 91 15 2.0 2.0 0.00 0.00 0.00 48 1014.5
20220813003107 91 60 3.0 6.0 0.00 0.00 0.00 48 1014.4
20220813002606 92 35 2.0 3.0 0.00 0.00 0.00 47 1014.3
20220813002104 92 73 4.0 5.0 0.00 0.00 0.00 47 1014.4
20220813001603 93 103 2.0 2.0 0.00 0.00 0.00 47 1014.2
20220813001103 93 48 6.0 8.0 0.00 0.00 0.00 46 1014.1
20220813000603 94 40 6.0 11.0 0.00 0.00 0.00 46 1014.0
20220813000101 94 36 4.0 7.0 0.00 0.00 0.00 45 1014.3
20220812235600 94 38 6.0 7.0 0.00 0.00 0.00 45 1014.0
20220812235058 95 2 5.0 10.0 0.00 0.00 0.00 43 1013.9
20220812234557 95 158 1.0 2.0 0.00 0.00 0.00 42 1014.0
20220812234056 96 180 0.0 1.0 0.00 0.00 0.00 43 1014.1
20220812233556 96 146 1.0 1.0 0.00 0.00 0.00 42 1014.0
20220812233055 96 57 2.0 5.0 0.00 0.00 0.00 42 1014.1
20220812232555 95 90 3.0 5.0 0.00 0.00 0.00 42 1014.0
20220812232054 94 165 1.0 2.0 0.00 0.00 0.00 44 1014.2
20220812231553 94 255 4.0 5.0 0.00 0.00 0.00 43 1014.2
20220812231053 94 0 6.0 10.0 0.00 0.00 0.00 42 1014.4
20220812230553 95 32 4.0 6.0 0.00 0.00 0.00 42 1014.3
20220812230051 95 63 3.0 5.0 0.00 0.00 0.00 42 1014.4
20220812225551 95 174 1.0 2.0 0.00 0.00 0.00 43 1014.6
20220812225050 95 43 3.0 3.0 0.00 0.00 0.00 42 1014.6
20220812224549 95 350 1.0 1.0 0.00 0.00 0.00 43 1014.8
20220812224048 95 152 1.0 2.0 0.00 0.00 0.00 43 1014.6
20220812223547 95 126 1.0 1.0 0.00 0.00 0.00 44 1014.6
20220812223047 95 105 4.0 5.0 0.00 0.00 0.00 44 1014.7
20220812222547 96 14 3.0 6.0 0.00 0.00 0.00 42 1014.6
20220812222046 96 16 7.0 8.0 0.00 0.00 0.00 42 1014.8
20220812221545 96 61 8.0 9.0 0.00 0.00 0.00 43 1015.0
20220812221043 97 34 5.0 6.0 0.00 0.00 0.00 42 1014.6
20220812220543 97 83 0.0 1.0 0.00 0.00 0.00 42 1014.6
20220812220042 96 2 3.0 5.0 0.00 0.00 0.00 42 1014.8
20220812215541 95 208 1.0 2.0 0.00 0.00 0.00 42 1014.7
20220812215039 96 11 6.0 8.0 0.00 0.00 0.00 42 1014.7
20220812214538 94 0 2.0 2.0 0.00 0.00 0.00 43 1014.6
20220812214035 95 55 7.0 9.0 0.00 0.00 0.00 43 1014.8
20220812213535 96 6 7.0 13.0 0.00 0.00 0.00 42 1014.4
20220812213034 98 6 3.0 3.0 0.00 0.00 0.00 40 1014.6
20220812212533 98 109 3.0 3.0 0.00 0.00 0.00 39 1014.7
20220812212032 97 25 3.0 6.0 0.00 0.00 0.00 40 1014.6
20220812211531 96 41 5.0 6.0 0.00 0.00 0.00 40 1014.6
20220812211030 95 36 2.0 3.0 0.00 0.00 0.00 42 1014.8
20220812210529 95 331 4.0 5.0 0.00 0.00 0.00 42 1015.0
20220812210028 96 105 2.0 3.0 0.00 0.00 0.00 43 1015.1
20220812205526 95 142 3.0 5.0 0.00 0.00 0.00 42 1015.2
20220812205026 95 85 1.0 2.0 0.00 0.00 0.00 44 1015.2
20220812204525 94 132 3.0 5.0 0.00 0.00 0.00 45 1015.4
20220812204023 94 116 5.0 8.0 0.00 0.00 0.00 45 1015.5
20220812203522 93 75 5.0 7.0 0.00 0.00 0.00 46 1015.6
20220812203020 93 90 1.0 2.0 0.00 0.00 0.00 48 1015.6
20220812202519 93 107 2.0 6.0 0.00 0.00 0.00 48 1015.6
20220812202019 93 38 5.0 6.0 0.00 0.00 0.00 48 1015.8
20220812201518 92 85 5.0 7.0 0.00 0.00 0.00 49 1015.8
20220812201018 92 12 5.0 11.0 0.00 0.00 0.00 50 1015.9
20220812200517 93 117 6.0 11.0 0.00 0.00 0.00 49 1015.6
20220812200016 93 31 7.0 9.0 0.00 0.00 0.00 48 1015.9
20220812195515 94 41 10.0 16.0 0.00 0.00 0.00 45 1015.8
20220812195014 96 128 3.0 5.0 0.00 0.00 0.00 45 1015.6
20220812194512 97 158 1.0 1.0 0.00 0.00 0.00 43 1015.8
20220812194012 97 297 3.0 3.0 0.00 0.00 0.00 40 1015.9
20220812193511 96 6 5.0 6.0 0.00 0.00 0.00 42 1015.7
20220812193010 95 76 6.0 8.0 0.00 0.00 0.00 44 1015.8
20220812192510 95 171 0.0 0.0 0.00 0.00 0.00 44 1016.0
20220812192010 97 264 2.0 3.0 0.00 0.00 0.00 42 1015.8
20220812191508 98 4 6.0 8.0 0.00 0.00 0.00 41 1015.9
20220812191008 98 54 3.0 6.0 0.00 0.00 0.00 40 1016.2
20220812190506 99 75 1.0 2.0 0.00 0.00 0.00 38 1016.1
20220812190006 95 219 1.0 1.0 0.00 0.00 0.00 43 1016.2
20220812185505 96 37 1.0 3.0 0.00 0.00 0.00 44 1016.5
20220812185004 96 183 0.0 1.0 0.00 0.00 0.00 41 1016.4
20220812184503 97 60 2.0 2.0 0.00 0.00 0.00 40 1016.5
20220812184002 96 189 1.0 1.0 0.00 0.00 0.00 40 1016.5
20220812183501 96 147 0.0 1.0 0.00 0.00 0.00 41 1016.7
20220812183000 97 37 1.0 1.0 0.00 0.00 0.00 39 1016.9
20220812182459 97 152 1.0 2.0 0.00 0.00 0.00 41 1016.8
20220812181959 95 353 1.0 1.0 0.00 0.00 0.00 44 1016.8
20220812181457 93 195 2.0 2.0 0.00 0.00 0.00 47 1017.2
20220812180956 94 232 3.0 7.0 0.00 0.00 0.00 46 1017.1
20220812180455 95 253 3.0 6.0 0.00 0.00 0.00 47 1017.1
20220812175953 95 143 0.0 0.0 0.00 0.00 0.00 47 1017.0
20220812175453 93 178 1.0 2.0 0.00 0.00 0.00 50 1017.1
20220812174951 94 182 1.0 2.0 0.00 0.00 0.00 50 1017.2
20220812174451 95 124 0.0 0.0 0.00 0.00 0.00 49 1017.4
20220812173950 94 240 1.0 1.0 0.00 0.00 0.00 48 1017.4
20220812173450 95 55 3.0 3.0 0.00 0.00 0.00 47 1017.6
20220812172949 93 110 0.0 1.0 0.00 0.00 0.00 50 1017.6
20220812172448 92 233 0.0 0.0 0.00 0.00 0.00 53 1017.5
20220812171947 92 117 1.0 1.0 0.00 0.00 0.00 53 1017.7
20220812171447 92 123 1.0 1.0 0.00 0.00 0.00 53 1017.6
20220812170946 90 150 1.0 1.0 0.00 0.00 0.00 56 1017.9
20220812170445 92 243 4.0 5.0 0.00 0.00 0.00 55 1017.8
20220812165944 93 171 0.0 1.0 0.00 0.00 0.00 53 1017.7
20220812165442 93 153 0.0 0.0 0.00 0.00 0.00 54 1017.9
20220812164942 91 187 1.0 1.0 0.00 0.00 0.00 55 1018.2
20220812164440 92 303 0.0 0.0 0.00 0.00 0.00 55 1017.9
20220812163939 91 144 0.0 0.0 0.00 0.00 0.00 56 1018.2
20220812163437 90 145 0.0 0.0 0.00 0.00 0.00 58 1018.2
20220812162937 89 170 2.0 3.0 0.00 0.00 0.00 59 1018.0
20220812162436 88 177 1.0 1.0 0.00 0.00 0.00 60 1018.5
20220812161935 89 231 2.0 2.0 0.00 0.00 0.00 58 1018.3
20220812161433 89 294 1.0 1.0 0.00 0.00 0.00 60 1018.2
20220812160931 88 297 1.0 1.0 0.00 0.00 0.00 61 1018.3
20220812160430 88 143 1.0 1.0 0.00 0.00 0.00 61 1018.4
20220812155929 87 247 3.0 3.0 0.00 0.00 0.00 63 1018.3
20220812155428 87 180 3.0 3.0 0.00 0.00 0.00 64 1018.4
20220812154928 87 271 1.0 2.0 0.00 0.00 0.00 63 1018.3
20220812154427 87 240 2.0 2.0 0.00 0.00 0.00 66 1018.4
20220812153926 88 210 2.0 2.0 0.00 0.00 0.00 64 1018.6
20220812153426 86 145 0.0 0.0 0.00 0.00 0.00 67 1018.5
20220812152926 85 130 2.0 2.0 0.00 0.00 0.00 68 1018.6
20220812152425 85 99 2.0 2.0 0.00 0.00 0.00 69 1018.3
20220812151924 84 174 2.0 2.0 0.00 0.00 0.00 69 1018.5
20220812151423 84 189 1.0 2.0 0.00 0.00 0.00 69 1018.6
20220812150923 83 175 2.0 2.0 0.00 0.00 0.00 71 1018.5
20220812150422 83 149 0.0 0.0 0.00 0.00 0.00 71 1018.7
20220812145921 84 187 2.0 2.0 0.00 0.00 0.00 71 1018.3
20220812145418 83 111 2.0 2.0 0.00 0.00 0.00 71 1018.7
20220812144916 83 160 0.0 1.0 0.00 0.00 0.00 71 1018.6
20220812144417 83 139 0.0 1.0 0.00 0.00 0.00 73 1018.8
20220812143916 81 192 1.0 1.0 0.00 0.00 0.00 74 1018.6
20220812143415 81 180 0.0 1.0 0.00 0.00 0.00 77 1018.7
20220812142914 81 155 0.0 1.0 0.00 0.00 0.00 78 1018.4
20220812142413 80 163 0.0 1.0 0.00 0.00 0.00 78 1018.5
20220812141912 81 128 0.0 1.0 0.00 0.00 0.00 78 1018.6
20220812141410 81 170 1.0 1.0 0.00 0.00 0.00 78 1018.5
20220812140909 81 150 0.0 0.0 0.00 0.00 0.00 81 1018.7
20220812140408 78 155 0.0 0.0 0.00 0.00 0.00 85 1018.4
20220812135908 77 160 0.0 0.0 0.00 0.00 0.00 88 1018.4
20220812135407 76 142 0.0 1.0 0.00 0.00 0.00 91 1018.3
20220812134905 76 79 0.0 1.0 0.00 0.00 0.00 92 1018.4
20220812134404 75 145 0.0 0.0 0.00 0.00 0.00 94 1018.4
20220812133903 74 193 1.0 1.0 0.00 0.00 0.00 94 1018.5
20220812133401 74 197 2.0 2.0 0.00 0.00 0.00 95 1018.4
20220812132902 74 167 0.0 0.0 0.00 0.00 0.00 96 1018.3
20220812132400 73 166 0.0 0.0 0.00 0.00 0.00 97 1018.4
20220812131900 73 132 0.0 0.0 0.00 0.00 0.00 97 1018.3
20220812131359 72 171 0.0 0.0 0.00 0.00 0.00 97 1018.2
20220812130858 72 192 1.0 1.0 0.00 0.00 0.00 97 1018.3
20220812130356 72 178 1.0 2.0 0.00 0.00 0.00 97 1018.3
20220812125855 72 170 1.0 2.0 0.00 0.00 0.00 97 1018.2
20220812125354 72 180 1.0 2.0 0.00 0.00 0.00 97 1018.2